Weather History for Natchitoches, LA

Change the Weather History Date:

Wednesday, November 21, 2012

  Actual Average Record
Temperature  
Mean Temperature 58 °F -  
Max Temperature 76 °F 66 °F 84 °F (1933)
Min Temperature 41 °F 43 °F 23 °F (1937)
Degree Days  
Heating Degree Days 6    
Growing Degree Days 8 (Base 50)    
Moisture  
Dew Point 45 °F    
Average Humidity 74    
Maximum Humidity 100    
Minimum Humidity 28    
Precipitation  
Precipitation 0.00 in - - ()
Sea Level Pressure  
Sea Level Pressure 30.21 in    
Wind  
Wind Speed 1 mph (North)    
Max Wind Speed 8 mph    
Max Gust Speed -    
Visibility 8 miles    
Events Fog    
Averages and records for this station are not official NWS values.
T = Trace of Precipitation, MM = Missing Value Source: NWS Daily Summary

Daily Weather History Graph

Daily Weather History Graph

Search for Another Location

Airport:

Trip Planner

Search our weather history database for the weather conditions in past years. The results will help you decide how hot, cold, wet, or windy it might be!

Date:

Astronomy

Nov. 21, 2012 Rise Set
Actual Time 6:46 AM CST 5:10 PM CST
Civil Twilight 6:20 AM CST 5:36 PM CST
Nautical Twilight 5:50 AM CST 6:06 PM CST
Astronomical Twilight 5:21 AM CST 6:35 PM CST
Moon 1:06 PM CST (11/21) 12:28 AM CST (11/21)
Length of Visible Light 11h 16m
Length of Day
10h 23m
First Quarter, 62% of the Moon is Illuminated
Nov 21
First Quarter
Nov 28
Full
Dec 6
Last Quarter
Dec 13
New
Dec 19
First Quarter

Hourly Weather History & Observations

Time (CST) Temp. Windchill Dew Point Humidity Pressure Visibility Wind Dir Wind Speed Gust Speed Precip Events Conditions
12:15 AM 47.5 °F - 47.3 °F 99% 30.19 in 7.0 mi Calm Calm - N/A   Clear
12:35 AM 47.5 °F - 47.3 °F 99% 30.19 in 10.0 mi Calm Calm - N/A   Clear
12:55 AM 47.1 °F - 46.9 °F 99% 30.18 in 7.0 mi Calm Calm - N/A   Clear
1:15 AM 46.9 °F - 46.9 °F 100% 30.18 in 5.0 mi Calm Calm - N/A   Clear
1:35 AM 46.4 °F - 46.4 °F 100% 30.18 in 7.0 mi Calm Calm - N/A   Clear
1:55 AM 46.8 °F - 46.8 °F 100% 30.18 in 3.0 mi Calm Calm - N/A   Clear
2:15 AM 46.9 °F - 46.9 °F 100% 30.18 in 1.0 mi Calm Calm - N/A   Mist
2:35 AM 46.4 °F - 46.4 °F 100% 30.18 in 0.2 mi Calm Calm - N/A Fog Fog
2:55 AM 46.0 °F - 46.0 °F 100% 30.19 in 5.0 mi Calm Calm - N/A   Clear
3:15 AM 45.5 °F - 45.5 °F 100% 30.19 in 4.0 mi Calm Calm - N/A   Clear
3:35 AM 44.8 °F - 44.8 °F 100% 30.19 in 5.0 mi Calm Calm - N/A   Clear
3:55 AM 43.9 °F - 43.9 °F 100% 30.18 in 5.0 mi Calm Calm - N/A   Clear
4:15 AM 44.6 °F - 44.6 °F 100% 30.18 in 5.0 mi Calm Calm - N/A   Clear
4:35 AM 44.8 °F 43.3 °F 44.8 °F 100% 30.19 in 7.0 mi NE 3.5 mph - N/A   Clear
4:55 AM 44.6 °F - 44.4 °F 99% 30.20 in 7.0 mi Calm Calm - N/A   Clear
5:15 AM 45.7 °F - 45.7 °F 100% 30.20 in 5.0 mi Calm Calm - N/A   Clear
5:35 AM 44.6 °F - 44.6 °F 100% 30.21 in 4.0 mi Calm Calm - N/A   Clear
5:55 AM 44.1 °F - 44.1 °F 100% 30.22 in 4.0 mi Calm Calm - N/A   Clear
6:15 AM 45.5 °F - 45.5 °F 100% 30.22 in 5.0 mi Calm Calm - N/A   Clear
6:35 AM 47.5 °F - 47.5 °F 100% 30.23 in 4.0 mi Calm Calm - N/A   Clear
6:55 AM 48.2 °F - 48.2 °F 100% 30.24 in 1.2 mi Calm Calm - N/A   Mist
7:15 AM 49.3 °F - 49.3 °F 100% 30.24 in 1.2 mi Calm Calm - N/A   Mist
7:35 AM 52.0 °F - 52.0 °F 100% 30.25 in 4.0 mi NW 3.5 mph - N/A   Clear
7:55 AM 54.1 °F - 54.1 °F 100% 30.26 in 5.0 mi Calm Calm - N/A   Clear
8:15 AM 56.5 °F - 53.6 °F 90% 30.26 in 7.0 mi NNW 3.5 mph - N/A   Clear
8:35 AM 58.5 °F - 52.7 °F 81% 30.27 in 10.0 mi NNW 3.5 mph - N/A   Clear
8:55 AM 60.3 °F - 51.3 °F 72% 30.27 in 10.0 mi NNE 3.5 mph - N/A   Clear
9:15 AM 61.5 °F - 50.4 °F 67% 30.28 in 10.0 mi NNE 3.5 mph - N/A   Clear
9:35 AM 63.9 °F - 51.3 °F 64% 30.28 in 10.0 mi Calm Calm - N/A   Clear
9:55 AM 65.5 °F - 50.9 °F 59% 30.28 in 10.0 mi NNE 3.5 mph - N/A   Clear
10:15 AM 64.9 °F - 50.7 °F 60% 30.28 in 10.0 mi NE 3.5 mph - N/A   Clear
10:35 AM 68.4 °F - 50.2 °F 52% 30.27 in 10.0 mi Calm Calm - N/A   Clear
10:55 AM 70.5 °F - 49.5 °F 47% 30.27 in 10.0 mi NNE 4.6 mph - N/A   Clear
11:15 AM 71.2 °F - 48.6 °F 45% 30.26 in 10.0 mi Calm Calm - N/A   Clear
11:35 AM 72.9 °F - 49.3 °F 43% 30.26 in 10.0 mi Calm Calm - N/A   Clear
11:55 AM 73.8 °F - 48.0 °F 40% 30.25 in 10.0 mi WNW 3.5 mph - N/A   Clear
12:15 PM 75.2 °F - 48.0 °F 38% 30.24 in 10.0 mi NW 4.6 mph - N/A   Clear
12:35 PM 75.4 °F - 47.3 °F 37% 30.24 in 10.0 mi Calm Calm - N/A   Clear
12:55 PM 75.4 °F - 47.5 °F 37% 30.22 in 10.0 mi NW 4.6 mph - N/A   Clear
1:15 PM 76.3 °F - 42.8 °F 30% 30.21 in 10.0 mi NE 4.6 mph - N/A   Clear
1:35 PM 76.6 °F - 40.8 °F 28% 30.20 in 10.0 mi North 8.1 mph - N/A   Clear
1:55 PM 76.1 °F - 41.2 °F 29% 30.20 in 10.0 mi NNE 6.9 mph - N/A   Clear
2:15 PM 76.6 °F - 42.1 °F 29% 30.19 in 10.0 mi NNW 5.8 mph - N/A   Clear
2:35 PM 76.5 °F - 43.5 °F 31% 30.19 in 10.0 mi NNE 5.8 mph - N/A   Clear
2:55 PM 76.3 °F - 43.2 °F 31% 30.18 in 10.0 mi North 4.6 mph - N/A   Clear
3:15 PM 76.1 °F - 42.1 °F 30% 30.18 in 10.0 mi North 4.6 mph - N/A   Clear
3:35 PM 75.6 °F - 40.6 °F 28% 30.18 in 10.0 mi NE 8.1 mph - N/A   Clear
3:55 PM 74.7 °F - 39.2 °F 28% 30.18 in 10.0 mi ENE 5.8 mph - N/A   Clear
4:15 PM 73.0 °F - 39.2 °F 29% 30.18 in 10.0 mi North 5.8 mph - N/A   Clear
4:35 PM 71.1 °F - 40.1 °F 32% 30.18 in 10.0 mi NE 3.5 mph - N/A   Clear
4:55 PM 68.9 °F - 39.2 °F 34% 30.18 in 10.0 mi NE 3.5 mph - N/A   Clear
5:15 PM 62.2 °F - 41.7 °F 47% 30.18 in 10.0 mi Calm Calm - N/A   Clear
5:35 PM 57.9 °F - 43.2 °F 58% 30.18 in 10.0 mi Calm Calm - N/A   Clear
5:55 PM 55.8 °F - 43.7 °F 64% 30.18 in 10.0 mi Calm Calm - N/A   Clear
6:15 PM 52.9 °F - 43.5 °F 71% 30.18 in 10.0 mi Calm Calm - N/A   Clear
6:35 PM 52.2 °F - 43.7 °F 73% 30.19 in 10.0 mi Calm Calm - N/A   Clear
6:55 PM 50.2 °F - 43.9 °F 79% 30.19 in 10.0 mi Calm Calm - N/A   Clear
7:15 PM 49.5 °F - 43.9 °F 81% 30.20 in 10.0 mi Calm Calm - N/A   Clear
7:35 PM 49.1 °F - 44.1 °F 83% 30.20 in 10.0 mi Calm Calm - N/A   Clear
7:55 PM 47.8 °F - 43.7 °F 86% 30.20 in 10.0 mi Calm Calm - N/A   Clear
8:15 PM 46.9 °F - 43.3 °F 87% 30.21 in 10.0 mi Calm Calm - N/A   Clear
8:35 PM 46.4 °F - 43.0 °F 88% 30.22 in 10.0 mi Calm Calm - N/A   Clear
8:55 PM 45.9 °F - 42.8 °F 89% 30.22 in 10.0 mi Calm Calm - N/A   Clear
9:15 PM 45.0 °F - 43.3 °F 94% 30.22 in 10.0 mi Calm Calm - N/A   Clear
9:35 PM 44.2 °F - 42.8 °F 95% 30.22 in 10.0 mi Calm Calm - N/A   Clear
9:55 PM 43.7 °F - 41.9 °F 93% 30.21 in 10.0 mi Calm Calm - N/A   Clear
10:15 PM 42.8 °F - 41.4 °F 95% 30.22 in 10.0 mi Calm Calm - N/A   Clear
10:35 PM 41.9 °F - 40.3 °F 94% 30.22 in 10.0 mi Calm Calm - N/A   Clear
10:55 PM 41.9 °F - 41.0 °F 97% 30.21 in 10.0 mi Calm Calm - N/A   Clear
11:15 PM 41.4 °F - 40.5 °F 97% 30.21 in 10.0 mi Calm Calm - N/A   Clear
11:35 PM 41.4 °F - 40.6 °F 97% 30.20 in 10.0 mi Calm Calm - N/A   Clear
11:55 PM 41.0 °F - 40.1 °F 97% 30.21 in 10.0 mi Calm Calm - N/A   Clear